Theta_e
306 306 306 307 307 307 307 307 308 308 308 308 308 308 308 308 309 320 322 318 317 316 314 321 321 321 322 325 327 328 330 332 333 334 332 332 332 335 339 340 342 344 343 346 347
305 306 306 306 306 307 307 307 307 308 308 308 308 308 308 308 316 320 318 316 312 313 315 319 321 321 322 324 326 327 329 331 333 334 332 330 329 331 337 341 342 343 344 345 344
306 306 307 307 307 307 308 308 308 308 308 308 308 308 308 308 324 322 316 315 315 312 316 319 320 321 321 323 324 326 327 329 331 332 331 330 329 331 333 335 339 343 347 346 343
306 307 307 307 307 308 308 309 309 309 309 309 308 308 308 317 322 324 316 316 314 315 317 318 320 320 321 321 323 324 325 327 328 330 331 330 330 329 330 331 341 341 346 346 342
306 306 307 308 308 309 309 309 310 311 312 312 310 308 313 324 321 320 314 316 317 317 318 319 319 320 321 322 322 322 324 326 326 327 330 330 329 328 328 331 337 341 345 345 342
307 306 307 308 308 309 309 310 311 314 316 315 311 308 319 320 318 320 321 321 320 319 319 320 321 322 321 322 322 323 323 323 325 327 330 331 330 329 329 330 337 340 344 345 344
307 307 307 308 309 309 310 311 312 316 313 314 311 313 319 320 318 319 318 320 321 319 320 320 320 320 322 323 323 323 322 324 324 326 328 330 331 330 330 332 331 338 341 345 346
306 306 307 308 309 309 310 311 313 315 313 310 309 319 321 317 317 318 320 320 319 319 320 320 319 321 321 325 325 324 323 323 325 325 327 328 330 331 331 331 330 332 337 341 345
307 306 307 308 309 309 310 311 314 315 313 311 321 323 323 315 316 317 318 320 320 319 320 319 320 321 323 322 324 325 324 324 324 326 327 330 330 330 330 329 329 330 331 336 341
307 307 307 308 308 309 311 314 317 316 321 322 322 323 323 320 319 319 318 319 322 323 321 321 321 321 322 323 323 325 325 324 325 327 327 327 330 330 330 329 330 330 330 330 335
307 307 307 308 308 310 313 317 321 325 321 320 322 325 319 319 319 320 319 319 323 323 322 322 321 322 322 323 324 324 325 325 325 325 325 327 327 327 328 329 329 329 330 331 331
307 307 307 308 307 311 315 318 315 314 317 319 319 319 319 318 320 321 319 320 323 325 324 324 322 322 322 323 324 325 324 324 324 325 325 325 326 326 327 328 329 329 331 331 331
306 306 306 307 309 314 316 314 312 313 320 320 319 320 319 318 319 321 321 320 323 325 326 326 325 323 321 323 323 324 324 324 324 325 325 325 325 326 327 328 329 331 335 334 333
305 305 306 307 312 313 317 312 313 314 323 321 322 322 320 319 319 320 322 321 320 322 323 325 325 323 322 322 323 324 324 324 323 323 324 326 326 329 329 329 330 332 336 335 338
305 305 306 306 310 314 313 312 313 317 329 322 323 320 321 321 324 320 321 322 320 321 322 323 323 323 324 324 323 322 324 324 324 325 327 326 328 329 330 330 328 331 336 338 338
305 305 305 311 311 312 311 312 316 325 323 323 322 322 323 321 323 322 322 323 322 321 322 322 323 323 324 324 323 323 324 325 325 326 326 326 327 326 329 329 330 332 336 340 341
305 305 304 306 314 310 310 316 325 323 320 322 322 321 323 323 324 323 324 323 324 323 324 323 322 323 323 325 325 324 325 328 328 328 327 326 327 327 329 329 329 329 329 334 340
305 305 309 307 308 310 312 320 325 321 320 319 319 320 324 324 323 324 324 324 324 324 325 325 326 324 323 323 325 327 327 328 330 329 328 328 328 328 328 328 329 329 330 331 334
305 311 310 312 311 311 317 323 322 322 320 320 319 320 322 323 324 324 325 325 325 324 326 327 325 323 322 322 323 323 327 326 328 328 328 329 330 329 329 329 328 328 332 333 335
304 311 312 313 313 313 319 321 321 319 318 318 320 320 322 323 324 326 327 326 326 324 325 326 328 324 323 323 322 322 324 327 327 330 330 328 329 328 329 329 329 329 330 331 339
306 315 313 311 312 315 319 321 320 317 318 319 319 320 320 322 322 325 327 326 324 324 324 325 327 328 324 324 324 325 322 325 328 329 332 333 330 331 331 330 330 329 329 329 337
311 316 313 313 317 317 318 319 311 317 317 318 318 320 321 321 321 321 324 326 323 324 327 327 330 330 328 326 325 324 325 327 328 329 330 328 328 328 328 329 329 328 329 329 336
313 315 312 314 320 320 318 318 316 316 317 318 318 318 319 320 321 321 321 323 322 325 329 330 329 331 330 328 328 327 326 326 327 330 331 331 330 328 328 327 328 328 328 328 335
313 315 316 315 317 321 322 320 318 316 316 317 318 318 320 321 321 322 322 322 321 323 321 325 330 332 331 330 330 331 329 328 329 330 330 331 330 328 329 329 330 330 329 328 332
311 315 317 320 318 319 319 320 320 319 317 318 319 318 319 320 321 322 322 321 322 320 321 324 329 329 328 327 326 327 327 327 329 329 332 331 331 331 331 331 331 331 331 330 330
313 312 313 315 319 319 317 320 320 320 319 320 320 321 320 320 322 322 322 322 323 322 322 324 328 324 325 325 325 326 325 325 325 325 326 326 327 327 328 328 330 330 331 331 330
308 309 314 314 316 317 318 319 319 318 318 318 318 319 320 320 320 321 321 322 323 323 324 324 325 325 324 322 323 325 324 324 324 325 325 326 326 326 327 328 329 333 337 334 332
Wind_Speed
13 14 13 14 14 15 15 16 16 17 17 17 16 17 17 18 17 9 12 8 5 10 6 7 11 15 17 16 17 14 12 16 16 12 3 9 6 8 3 8 4 3 4 8 15
14 14 14 15 15 16 17 17 17 18 18 17 16 16 17 18 18 19 13 11 11 9 12 13 11 13 13 17 15 13 13 22 11 8 5 2 5 2 4 7 9 7 5 9 14
15 14 15 15 16 17 18 19 20 19 18 16 15 14 14 14 16 1 5 5 9 14 16 12 13 9 15 15 17 16 17 22 13 7 8 10 10 3 8 13 11 10 11 12 14
16 16 15 16 18 19 19 23 20 18 16 15 13 12 11 8 3 7 8 5 7 13 15 13 13 13 14 15 14 18 20 18 18 11 7 12 10 9 9 8 7 4 15 13 12
17 17 17 17 19 20 22 20 18 19 17 15 10 8 6 8 9 4 3 7 6 11 17 14 13 14 15 12 13 12 16 19 14 18 15 10 12 13 12 5 2 5 11 14 12
18 19 18 19 21 21 23 19 20 15 13 11 7 4 8 13 3 1 3 6 8 13 15 13 10 9 10 15 12 11 13 19 15 16 16 15 13 12 13 3 9 7 11 13 14
20 20 20 20 22 22 21 20 17 11 11 6 5 4 10 13 1 2 6 5 8 11 8 10 4 9 6 10 14 13 13 15 17 18 16 11 15 19 17 6 13 15 11 12 14
22 22 21 21 22 23 19 20 12 8 7 1 4 6 7 2 3 8 7 6 7 7 8 4 9 13 11 11 8 14 15 15 18 19 16 5 17 21 21 12 11 12 16 12 16
22 23 22 22 22 22 19 18 6 4 2 4 4 8 6 2 8 13 13 10 9 8 7 4 10 13 11 12 13 15 12 14 16 14 10 13 18 21 5 6 10 12 12 17 15
22 23 23 23 24 19 16 14 6 2 2 5 9 6 8 2 6 4 11 13 11 10 9 11 8 12 12 13 13 8 13 11 7 11 12 15 17 19 17 10 12 15 15 13 18
21 23 23 22 23 14 15 7 5 6 12 12 6 7 2 0 5 9 10 14 13 11 14 13 11 14 17 15 16 10 10 12 8 7 3 14 17 18 19 17 20 14 18 18 16
20 22 23 21 17 9 10 5 6 6 10 13 13 13 14 4 4 8 12 15 14 15 15 7 14 16 12 9 7 10 12 13 11 10 10 15 17 18 19 18 21 15 13 16 15
21 21 22 20 6 5 5 5 6 6 7 4 3 6 5 17 12 11 13 18 14 16 15 13 7 3 4 11 11 14 13 12 11 11 10 14 18 20 18 21 9 13 12 15 12
21 21 21 20 3 7 3 5 9 3 5 9 8 6 7 6 9 15 16 14 18 16 17 12 15 6 10 12 13 14 11 9 10 13 12 15 13 15 14 12 13 12 7 9 7
19 20 18 11 10 6 5 7 6 4 5 4 8 5 3 9 3 14 13 14 17 13 12 14 10 12 13 13 12 16 7 7 14 13 14 17 9 13 6 7 12 10 5 1 6
20 20 19 5 8 8 8 10 6 6 4 5 4 5 12 9 6 9 13 11 12 16 13 16 11 10 12 11 14 13 10 12 14 14 14 17 15 16 11 13 8 4 6 2 4
21 18 14 9 3 9 10 7 6 7 4 5 2 3 2 6 7 11 16 16 11 11 13 16 17 13 12 11 7 13 11 10 12 11 13 16 16 13 9 9 6 4 9 7 8
19 13 8 9 9 9 7 6 7 5 3 3 3 7 7 3 9 10 14 15 16 14 12 8 12 19 14 14 15 15 13 11 14 11 11 10 5 5 11 10 4 7 10 9 9
15 6 6 3 5 5 6 8 2 3 4 3 7 8 8 6 6 8 12 14 14 14 12 5 9 5 3 9 15 16 14 10 14 17 14 16 8 10 12 11 12 13 4 6 7
13 9 6 2 4 7 7 12 2 3 4 5 9 2 5 8 8 9 12 5 6 5 8 11 13 7 9 7 13 14 13 9 9 14 16 13 13 10 9 7 5 5 7 5 6
6 4 5 3 4 6 9 13 5 5 4 4 6 5 8 4 9 7 3 8 2 5 7 13 10 14 7 10 13 8 13 11 12 11 11 10 9 11 9 4 7 10 12 11 4
6 5 5 5 6 8 11 7 5 6 5 6 6 11 8 6 10 9 5 1 3 7 8 3 5 12 17 15 14 14 15 11 10 11 11 13 14 18 13 8 12 15 15 11 3
4 1 4 5 6 10 8 5 4 6 7 4 6 7 7 11 6 12 6 8 4 4 4 5 7 10 16 16 16 12 15 13 14 13 16 13 12 11 8 9 10 14 17 20 3
4 4 5 6 10 9 9 10 12 6 10 6 8 5 8 11 11 7 6 5 4 2 5 4 9 12 13 16 9 11 12 16 11 11 14 15 18 15 11 10 12 16 17 18 13
4 3 5 5 10 10 10 6 11 12 8 6 8 13 12 10 13 14 13 11 10 7 9 4 14 16 19 22 19 18 17 17 16 14 15 16 20 18 16 16 17 18 17 17 12
3 4 4 7 4 6 8 11 13 10 9 9 11 8 9 13 12 10 10 10 9 9 6 6 10 14 21 20 20 25 24 22 22 21 23 21 21 18 18 18 19 16 19 16 13
2 4 5 3 7 10 10 13 10 11 6 10 5 10 9 6 4 8 7 10 11 8 9 11 10 12 20 20 22 27 21 25 24 23 23 21 21 20 19 17 10 14 20 17 14
Wind_Direction
9 3 358 353 349 342 339 333 329 324 323 320 319 317 317 316 308 280 259 263 218 247 233 238 221 226 236 251 252 264 268 262 260 253 170 160 262 99 335 277 198 135 33 63 127
7 4 0 354 348 342 335 329 325 320 316 312 312 313 315 318 302 267 252 241 248 227 226 222 214 217 233 235 238 234 248 255 283 299 308 75 271 318 251 197 199 182 126 133 153
5 1 357 351 344 340 333 328 323 315 309 306 307 308 314 318 273 209 145 200 234 220 228 243 266 245 241 233 229 235 249 267 292 250 280 303 289 136 264 264 211 161 137 153 164
4 359 355 348 342 340 334 328 323 316 308 303 303 305 311 296 311 97 179 279 277 209 225 238 244 240 244 243 233 244 255 265 291 283 250 264 299 296 274 304 42 2 131 165 176
1 357 351 345 342 338 334 331 325 316 306 297 293 299 305 238 260 96 275 274 205 197 222 223 227 234 247 248 248 248 259 260 254 266 269 275 273 277 284 286 180 146 151 174 185
357 353 349 343 341 338 336 332 328 321 315 299 263 260 255 258 33 350 204 173 188 209 220 228 237 255 287 273 259 251 254 254 250 255 249 257 270 269 259 322 168 189 185 183 186
353 350 346 342 339 337 335 333 330 328 328 306 214 198 263 256 349 186 189 214 217 216 227 237 281 252 233 261 244 264 260 255 246 251 253 261 267 250 250 179 214 188 212 199 188
352 348 345 341 337 335 332 331 329 331 340 20 166 225 269 137 236 211 193 192 194 215 270 243 243 265 258 293 257 248 249 258 224 222 229 240 262 241 230 192 213 222 191 216 194
349 346 342 339 336 334 329 327 318 329 342 139 194 237 267 182 216 214 217 221 187 208 221 247 251 244 228 246 247 222 260 223 272 184 232 210 252 254 142 229 258 258 233 191 208
345 342 341 339 336 333 329 324 278 265 224 249 259 250 237 60 148 195 207 214 192 192 206 216 225 232 228 236 244 296 206 242 257 187 203 249 236 263 286 271 217 250 256 252 199
341 339 339 339 335 337 336 274 233 195 221 277 310 285 154 356 215 217 190 200 205 207 227 201 224 227 240 227 277 332 302 301 310 288 254 277 279 275 269 263 271 230 249 239 252
337 337 335 338 333 346 310 7 42 333 297 280 251 262 268 258 249 226 185 199 202 217 218 194 237 258 239 268 266 257 262 264 267 267 294 277 264 263 262 260 250 266 282 277 250
339 335 335 337 329 336 14 36 333 315 262 166 210 238 219 207 229 221 198 211 208 226 233 246 307 339 248 246 243 246 262 277 293 306 264 269 268 260 254 250 267 267 263 266 218
339 335 340 339 258 329 202 335 329 297 271 138 186 151 177 211 222 226 193 222 239 243 243 243 260 203 249 243 243 250 239 259 275 265 267 246 260 268 206 209 231 235 208 217 202
335 334 338 343 310 298 347 321 324 241 260 107 126 87 187 218 101 191 204 221 244 230 247 241 225 252 236 249 241 259 295 294 260 264 275 268 243 280 213 213 238 224 138 192 190
331 331 330 340 272 289 311 308 265 231 228 130 156 200 188 196 198 142 192 233 241 257 238 266 284 255 252 255 242 260 271 250 256 253 251 248 256 267 245 219 181 65 151 153 226
325 324 313 288 332 317 314 261 231 252 121 129 156 258 290 172 190 176 196 201 219 220 230 229 242 228 240 248 206 240 231 250 232 225 246 243 233 237 313 340 315 319 305 194 187
325 320 295 246 284 302 276 227 257 33 58 90 257 257 246 170 220 199 188 220 220 245 285 264 224 206 212 229 258 196 242 261 291 285 299 179 234 262 241 287 322 287 276 275 271
338 319 265 246 269 273 247 223 283 4 35 285 259 249 184 205 270 212 227 220 216 211 253 298 241 94 264 272 231 250 255 257 286 280 278 284 249 185 200 226 263 254 206 267 269
329 294 238 269 250 233 239 250 301 19 306 271 287 267 258 167 235 207 200 41 332 320 315 274 275 228 174 231 240 251 261 233 230 263 274 273 249 261 150 198 276 305 292 329 149
287 242 91 149 187 221 235 235 258 111 290 270 281 273 268 278 266 268 345 85 246 276 279 264 256 279 202 220 256 182 235 243 287 301 300 288 259 45 29 348 311 311 303 319 55
281 231 129 176 215 220 240 274 21 271 217 260 277 283 286 287 279 256 273 99 315 277 266 64 288 256 263 253 237 252 280 235 233 244 238 260 278 315 326 285 282 299 286 308 42
253 294 156 219 236 223 227 261 261 261 247 239 252 251 268 265 267 250 234 106 298 289 359 12 230 258 250 249 235 239 256 251 259 273 267 279 284 303 311 292 268 285 308 299 148
274 215 157 212 271 290 280 222 233 215 261 241 274 278 255 255 249 277 235 158 262 324 344 307 262 261 275 311 332 302 235 261 255 256 261 256 265 265 288 313 314 305 299 297 333
230 245 1 190 224 231 256 273 240 227 222 215 233 243 248 252 258 247 245 261 200 155 250 265 262 256 261 273 281 278 273 277 269 263 261 281 295 306 311 308 300 294 287 284 272
278 256 171 284 280 251 205 237 246 252 222 220 245 272 243 248 255 274 323 258 278 250 227 250 271 269 268 270 273 272 270 268 269 270 273 274 273 276 276 276 277 305 312 293 269
171 279 283 156 209 238 234 229 252 259 211 271 269 259 230 285 319 355 333 314 297 291 279 279 273 265 259 261 267 262 257 260 264 269 269 267 272 278 278 284 303 345 333 311 286